This is the latest recevied weather packets stored in our database for station/object YO8SDE-8. If no packets are shown the sender has not sent any weather packets the latest 10 day(s).
| Time | Temp. | Humidity | Pressure | Rain* | Wind** | Luminosity | Snow |
|---|---|---|---|---|---|---|---|
| 1778185257 | 15.56° C | 66% | 1001.2 hPa | 0 mm | - | - | - |
| 1778184957 | 15.56° C | 65% | 1001.3 hPa | 0 mm | - | - | - |
| 1778184657 | 15.56° C | 63% | 1001.4 hPa | 0 mm | - | - | - |
| 1778184357 | 15.56° C | 62% | 1001.3 hPa | 0 mm | - | - | - |
| 1778184057 | 15.56° C | 62% | 1001.3 hPa | 0 mm | - | - | - |
| 1778183757 | 15.56° C | 61% | 1001.4 hPa | 0 mm | - | - | - |
| 1778183457 | 15.56° C | 61% | 1001.5 hPa | 0 mm | - | - | - |
| 1778183157 | 16.11° C | 61% | 1001.5 hPa | 0 mm | - | - | - |
| 1778182857 | 16.11° C | 60% | 1001.4 hPa | 0 mm | - | - | - |
| 1778182557 | 16.67° C | 60% | 1001.3 hPa | 0 mm | - | - | - |
| 1778182257 | 17.22° C | 59% | 1001.3 hPa | 0 mm | - | - | - |
| 1778181957 | 17.22° C | 58% | 1001.4 hPa | 0 mm | - | - | - |
| 1778181657 | 17.78° C | 57% | 1001.5 hPa | 0 mm | - | - | - |
| 1778181357 | 17.78° C | 58% | 1001.5 hPa | 0 mm | - | - | - |
| 1778181057 | 17.78° C | 58% | 1001.4 hPa | 0 mm | - | - | - |
| 1778180757 | 17.78° C | 59% | 1001.2 hPa | 0 mm | - | - | - |
| 1778180457 | 17.22° C | 59% | 1001.4 hPa | 0 mm | - | - | - |
| 1778180157 | 17.22° C | 59% | 1001.3 hPa | 0 mm | - | - | - |
| 1778179857 | 17.22° C | 58% | 1001.2 hPa | 0 mm | - | - | - |
| 1778179557 | 17.22° C | 57% | 1001.2 hPa | 0 mm | - | - | - |
| 1778179257 | 17.78° C | 56% | 1001.2 hPa | 0 mm | - | - | - |
| 1778178957 | 17.78° C | 55% | 1001.2 hPa | 0 mm | - | - | - |
| 1778178657 | 18.33° C | 53% | 1001.2 hPa | 0 mm | - | - | - |
| 1778178357 | 18.89° C | 52% | 1001.1 hPa | 0 mm | - | - | - |
| 1778178057 | 19.44° C | 51% | 1001.1 hPa | 0 mm | - | - | - |
* Rain latest hour (hover to see other rain measurements)
** Current wind speed in m/s (hover to see current wind gust speed)